sat.trackr.live / text

‹ back to catalog

STARLINK-37308

NORAD 68952 · 2026-099B

PAYLOAD ACTIVE UNKNOWN

§ Identity

Operator
Country
US
Launch date
2026-05-01
Launch site
AFETR
Launch vehicle
Mass (kg)
RCS (m²)

Purposes: comms

External: N2YO · Heavens-Above · Gunter

§ Orbital elements

Epoch: 2026-09-20T04:35:51.919296Z

Period
93.85 min
Inclination
53.1578°
Eccentricity
0.0001207
Mean motion
15.34391475 rev/d
Perigee alt
461.9 km
Apogee alt
463.6 km
Semi-major
6,840.9 km
B*
1.9471e-4
RAAN
77.4924°
Arg perigee
89.8913°
Mean anomaly
270.2228°
Rev number
2,185

§ Raw data

STARLINK-373081 68952U 26099B   26263.19157314  .00006206  00000+0  19471-3 0  99942 68952  53.1578  77.4924 0001207  89.8913 270.2228 15.34391475 21853

JSON: /api/v1/satellites/68952 · /tle

For live sub-satellite position, see the globe view (requires WebGL).

§ Visibility from observer

Set your observer location to see the next 7 days of passes ≥ 10°. The values pass through the URL so the page stays shareable.

No JS? Fill the form by hand. The geolocation button needs JavaScript.